Theta_e
326 331 329 330 334 337 338 336 333 337 336 324 332 338 340 341 343 343 341 339 337 334 335 333 332 330 326 323 323 324 319 319
321 326 330 330 334 338 338 335 330 334 332 326 331 338 341 341 341 340 339 339 336 334 332 331 328 329 327 326 324 320 320 320
323 325 327 330 332 332 331 331 329 335 338 337 338 339 339 338 337 337 337 337 335 335 333 330 328 328 325 326 326 324 321 320
323 325 326 326 327 327 327 327 326 326 326 329 334 338 337 336 334 334 334 334 334 333 331 331 331 330 316 312 319 327 326 325
323 323 324 326 325 326 325 323 325 328 330 332 333 334 331 330 329 328 329 330 332 330 330 329 327 328 313 309 311 325 325 324
322 323 324 324 325 324 324 324 323 323 323 325 326 325 322 321 321 319 322 323 321 323 325 325 325 328 311 306 307 319 322 324
323 324 325 324 322 322 322 321 322 321 320 321 321 321 319 320 320 321 317 320 321 321 322 321 321 321 310 305 308 321 320 322
323 323 323 322 322 322 322 321 321 319 319 319 320 320 320 320 321 321 322 322 321 320 320 321 316 318 310 305 307 319 323 322
323 322 322 322 322 323 322 321 319 320 321 321 321 322 322 322 321 321 320 318 318 318 318 320 321 319 319 305 301 314 321 321
321 322 322 322 321 321 319 317 320 321 321 320 319 320 318 317 318 317 316 316 314 314 315 314 314 318 309 308 300 301 310 319
319 320 319 320 318 318 315 316 318 318 317 317 317 318 318 318 315 315 312 314 311 311 310 310 310 312 315 304 300 299 300 307
317 317 316 316 315 313 316 317 317 316 316 316 317 317 316 317 314 312 312 310 309 309 309 309 310 312 314 315 314 315 306 306
315 316 315 315 315 314 315 315 316 315 315 315 316 313 315 313 314 313 311 313 309 309 309 310 310 310 310 300 299 304 307 306
312 313 313 313 313 313 313 314 314 314 313 312 311 311 310 311 311 311 303 298 297 295 295 298 309 300 296 295 294 293 294 294
309 310 311 312 312 311 312 313 313 312 312 313 312 308 311 310 310 309 308 308 300 296 293 292 292 295 293 292 293 292 295 295
309 308 309 310 310 310 312 312 312 312 313 303 310 311 311 310 309 309 309 308 307 309 301 296 295 292 292 293 293 294 307 304
310 309 309 310 309 310 312 312 312 312 311 311 311 310 310 308 310 310 310 309 309 309 310 304 300 293 292 293 292 306 307 304
307 308 308 308 309 311 312 312 311 311 311 303 301 308 308 308 308 309 309 309 308 308 306 307 308 304 307 306 305 305 303 302
309 310 311 310 310 310 311 311 311 309 308 308 299 307 307 307 307 307 307 305 303 304 304 303 287 302 305 303 302 300 300 300
308 309 310 311 310 310 310 309 308 308 307 306 306 306 307 306 305 306 307 305 303 301 301 302 289 304 302 302 302 302 303 302
Wind_Speed
10 9 9 8 7 2 4 7 8 10 4 8 10 13 9 9 9 9 8 8 8 7 8 9 9 10 9 9 10 11 10 11
4 4 5 4 2 2 5 3 2 4 10 5 4 9 8 5 6 6 6 6 7 7 7 8 7 8 9 10 10 9 9 9
8 7 6 5 8 9 10 6 4 2 7 6 5 4 2 3 4 4 5 6 6 6 7 7 8 7 8 8 10 11 10 10
9 10 10 9 7 6 6 6 4 4 4 2 3 1 1 1 2 3 4 5 5 4 5 6 7 6 8 10 12 10 12 13
8 8 7 5 5 5 6 5 3 6 7 8 8 6 5 6 5 5 6 6 6 6 6 5 6 7 7 11 11 11 11 11
6 5 4 4 4 5 5 8 9 8 8 7 6 5 5 5 6 6 6 5 2 4 7 5 6 8 8 12 8 8 10 12
5 3 2 4 4 4 5 5 5 6 6 6 6 5 4 5 6 7 4 2 6 4 7 9 7 8 10 11 7 6 9 12
4 3 2 1 1 0 1 3 4 5 5 5 5 5 6 7 7 7 6 8 10 10 9 9 11 9 12 11 5 7 9 5
4 2 2 3 2 1 0 2 4 3 2 3 4 5 5 6 7 6 7 8 8 9 10 10 11 10 11 11 7 7 9 7
2 3 3 3 1 2 2 3 2 1 3 4 5 5 4 4 4 5 6 6 8 10 10 10 9 10 8 10 8 14 9 9
1 2 3 1 1 1 3 1 2 3 4 5 5 5 5 4 5 7 7 8 8 10 9 9 10 9 10 9 9 9 9 8
3 4 4 5 3 4 4 5 4 5 5 5 5 6 6 6 6 6 7 8 9 10 10 10 10 10 10 9 9 9 5 6
4 5 5 7 5 6 7 7 5 7 7 8 8 7 7 7 8 8 8 9 9 9 10 9 10 9 8 8 9 9 8 6
5 7 7 9 8 9 9 6 6 8 8 9 8 8 8 8 8 10 8 13 14 12 15 10 7 8 15 16 14 14 12 9
9 10 9 9 9 9 9 7 6 8 9 10 8 7 8 9 11 11 12 10 11 13 11 8 11 14 13 16 14 13 8 3
8 9 9 9 8 10 8 7 7 7 8 6 7 7 9 10 11 12 12 12 13 12 4 6 7 10 11 10 10 6 3 1
5 6 8 7 7 8 5 4 5 6 7 7 8 9 10 9 10 10 10 11 9 8 7 5 3 6 8 8 3 5 3 4
5 6 7 6 5 5 5 6 8 8 7 5 6 8 9 10 10 10 9 9 9 9 8 8 6 3 3 3 2 4 5 4
6 6 6 5 5 6 7 7 8 6 6 7 6 8 9 8 8 8 8 8 7 6 7 4 4 3 3 6 5 4 3 4
7 6 7 5 5 5 6 7 6 5 6 7 8 7 6 6 7 7 9 9 7 5 4 4 3 3 6 6 6 6 6 7
Wind_Direction
268 249 235 237 238 210 131 100 54 341 31 123 265 273 262 256 265 277 273 251 236 228 237 238 244 242 231 224 232 241 225 227
352 295 258 230 257 138 180 168 224 221 242 283 341 266 269 280 279 274 265 245 250 253 253 250 257 264 251 246 241 235 240 238
47 50 57 65 88 94 88 82 71 99 257 269 259 251 285 308 288 276 273 264 262 261 259 251 258 251 251 253 249 242 234 230
67 81 90 85 82 90 114 128 141 211 233 25 356 341 58 51 24 347 303 288 282 262 259 262 271 259 249 235 247 253 247 246
99 100 96 79 48 15 26 29 61 56 41 38 30 23 37 27 25 30 16 6 349 333 325 311 305 302 267 252 241 252 255 249
126 109 93 43 26 29 21 28 34 34 36 36 37 47 73 77 73 57 46 2 13 338 318 309 307 300 282 256 249 250 257 251
128 115 27 9 16 26 35 42 32 29 30 32 33 41 40 9 351 340 321 333 306 308 306 305 320 311 299 274 243 255 253 257
163 142 107 110 47 308 55 57 35 26 21 24 14 357 336 327 324 314 307 299 297 299 302 297 297 287 286 282 254 271 241 250
133 138 165 159 172 205 66 20 24 31 7 322 296 293 301 309 318 330 330 321 314 306 307 307 301 291 292 276 246 243 256 254
143 176 183 175 59 335 14 39 45 249 289 291 303 306 309 317 303 313 316 317 313 309 307 305 301 296 275 279 242 227 266 268
262 294 315 25 27 334 299 298 287 317 309 312 303 296 298 305 313 316 314 315 309 308 309 310 309 307 301 285 282 274 243 244
263 267 276 288 241 249 266 291 285 281 292 287 286 289 298 288 296 299 294 303 308 307 308 305 307 308 307 319 340 331 281 273
252 252 258 268 266 270 266 265 268 270 269 275 272 268 278 291 288 291 293 297 294 305 304 310 307 305 326 333 300 306 301 291
259 254 256 264 268 271 282 291 266 265 279 280 279 292 291 294 293 295 261 245 266 254 251 254 279 262 290 287 294 291 283 269
265 273 281 279 282 284 285 279 256 264 268 276 284 288 295 297 300 303 304 297 257 246 251 240 221 262 279 289 296 293 281 176
283 275 274 272 272 271 280 265 276 282 291 278 287 301 302 304 309 303 301 298 308 315 281 246 234 250 268 289 295 259 263 206
289 278 280 279 274 286 331 329 321 314 306 310 317 310 309 311 299 306 304 307 302 305 316 306 248 250 274 294 337 281 59 54
321 317 324 312 306 352 354 336 322 308 310 316 310 317 309 316 321 316 317 314 311 312 317 317 338 284 341 18 6 62 67 67
317 307 311 313 329 334 329 323 319 325 316 312 315 298 311 327 321 324 317 318 308 304 316 2 327 291 357 83 64 61 93 74
307 299 283 285 304 319 319 325 329 311 303 311 308 305 329 340 336 328 331 332 321 313 320 347 343 58 89 100 97 75 57 66